Location: Casa Rossa
(45.2389°N, 12.2056°E)
Time: 04:30:55
(UTC+00:00)

Cosmos 1459 Rocket - Pass Details

Date: 14 July 2020
Orbit: 938 x 999 km, 83.0° (Epoch: 11 August)

Event Time Altitude Azimuth Distance (km) Brightness Sun altitude
Exits shadow 00:52:48 35° 201° (SSW) 1,487 4.4 -19.7°
Maximum altitude 00:55:32 75° 279° (W) 987 3.9 -19.5°
Drops below altitude 10° 01:01:43 10° 5° (N) 2,705 7.4 -19.0°
Sets 01:04:16 0° 7° (N) 3,664 8.4 -18.8°
